Change the Weather History Date:

Monday, January 21, 2013

  Actual Average Record
Temperature  
Mean Temperature 44 °F -  
Max Temperature 57 °F 47 °F 67 °F (1959)
Min Temperature 30 °F 26 °F -8 °F (1985)
Degree Days  
Heating Degree Days 22    
Moisture  
Dew Point 22 °F    
Average Humidity 49    
Maximum Humidity 85    
Minimum Humidity 27    
Precipitation  
Precipitation 0.00 in - - ()
Sea Level Pressure  
Sea Level Pressure 29.98 in    
Wind  
Wind Speed 3 mph (WNW)    
Max Wind Speed 14 mph    
Max Gust Speed 26 mph    
Visibility 10 miles    
Events      
Averages and records for this station are not official NWS values.
T = Trace of Precipitation, MM = Missing Value Source: NWS Daily Summary

Daily Weather History Graph

Daily Weather History Graph

Search for Another Location

Airport or City:

Trip Planner

Search our weather history database for the weather conditions in past years. The results will help you decide how hot, cold, wet, or windy it might be!

Date:

Astronomy

Jan. 21, 2013 Rise Set
Actual Time 7:32 AM EST 5:41 PM EST
Civil Twilight 7:04 AM EST 6:09 PM EST
Nautical Twilight 6:33 AM EST 6:40 PM EST
Astronomical Twilight 6:03 AM EST 7:10 PM EST
Moon 1:21 PM EST (1/21) 2:59 AM EST (1/21)
Length of Visible Light 11h 04m
Length of Day
10h 09m
Waxing Gibbous, 75% of the Moon is Illuminated
Jan 21
Waxing Gibbous
Jan 26
Full
Feb 3
Last Quarter
Feb 10
New
Feb 17
First Quarter

Hourly Weather History & Observations

Time (EST) Temp. Windchill Dew Point Humidity Pressure Visibility Wind Dir Wind Speed Gust Speed Precip Events Conditions
12:53 AM 37.0 °F - 25.0 °F 62% 30.03 in 10.0 mi Calm Calm - N/A   Clear
1:53 AM 41.0 °F - 25.0 °F 53% 30.02 in 10.0 mi Calm Calm - N/A   Clear
2:53 AM 34.0 °F - 27.0 °F 75% 30.03 in 10.0 mi Calm Calm - N/A   Clear
3:53 AM 35.1 °F - 27.0 °F 72% 30.02 in 10.0 mi Calm Calm - N/A   Clear
4:53 AM 33.1 °F - 28.0 °F 82% 30.02 in 10.0 mi Calm Calm - N/A   Clear
5:53 AM 32.0 °F - 26.1 °F 79% 30.01 in 10.0 mi Calm Calm - N/A   Clear
6:53 AM 30.9 °F - 26.1 °F 82% 30.02 in 10.0 mi Calm Calm - N/A   Clear
7:53 AM 30.0 °F - 26.1 °F 85% 30.02 in 10.0 mi Calm Calm - N/A   Clear
8:53 AM 35.1 °F - 30.0 °F 82% 30.03 in 10.0 mi Calm Calm - N/A   Clear
9:53 AM 42.1 °F - 30.0 °F 62% 30.04 in 10.0 mi Calm Calm - N/A   Clear
10:53 AM 50.0 °F - 28.0 °F 43% 30.03 in 10.0 mi SW 5.8 mph - N/A   Clear
11:53 AM 53.1 °F - 28.0 °F 38% 29.99 in 10.0 mi WSW 3.5 mph - N/A   Clear
12:53 PM 55.9 °F - 23.0 °F 28% 29.94 in 10.0 mi NW 9.2 mph 16.1 mph N/A   Clear
1:53 PM 57.0 °F - 24.1 °F 28% 29.90 in 10.0 mi WNW 6.9 mph - N/A   Clear
2:53 PM 57.9 °F - 25.0 °F 28% 29.90 in 10.0 mi WNW 9.2 mph - N/A   Clear
3:53 PM 55.9 °F - 24.1 °F 29% 29.89 in 10.0 mi NW 12.7 mph 18.4 mph N/A   Clear
4:53 PM 52.0 °F - 19.0 °F 27% 29.91 in 10.0 mi WNW 13.8 mph 26.5 mph N/A   Clear
5:53 PM 48.0 °F - 17.1 °F 29% 29.94 in 10.0 mi WNW 13.8 mph 25.3 mph N/A   Clear
6:53 PM 45.0 °F 40.6 °F 17.1 °F 33% 29.96 in 10.0 mi West 8.1 mph - N/A   Clear
7:53 PM 43.0 °F 38.8 °F 14.0 °F 31% 29.98 in 10.0 mi West 6.9 mph - N/A   Clear
8:53 PM 41.0 °F 37.1 °F 12.9 °F 32% 29.96 in 10.0 mi WSW 5.8 mph - N/A   Clear
9:53 PM 41.0 °F 35.8 °F 10.9 °F 29% 29.96 in 10.0 mi West 8.1 mph 17.3 mph N/A   Clear
10:53 PM 39.0 °F 34.0 °F 12.0 °F 33% 29.97 in 10.0 mi NW 6.9 mph - N/A   Clear
11:53 PM 37.0 °F 30.4 °F 10.9 °F 34% 29.98 in 10.0 mi West 9.2 mph - N/A   Clear